[[{"header":{"parameterUnit":"m.s-1","parameterCategory":1,"la1":30.2991,"la2":30.254,"lo1":-89.0895,"lo2":-89.0444,"dx":0.0017,"dy":0.0017,"nx":28,"ny":28,"refTime":"2023-01-10T15:00:00:Z","depth":0,"parameterNumber":2,"parameterNumberName":"U-component_of_WINDS"},"data":[0,0,0,0,0,0,0,0,0,0,0,0,0,0,0,0,0,0,0,0,0,0,0,0,0,0,0,0,0,0,0,0,0,0,0,0,0,0,0,0,0,0,0,0,0,0,0,0,0,0,0,0,0,0,0,0,0,0,0.5254,0.5255,0,0.5346,0.5347,0.5348,0.5353,0.5352,0.535,0.5349,0.5449,0.5453,0.5456,0,0,0,0,0,0,0,0,0,0,0,0,0,0.5086,0.5089,0.5254,0.5255,0.5256,0.5346,0.5347,0.5349,0.5353,0.5352,0.535,0.5349,0.5448,0.5452,0.5456,0,0,0,0,0,0,0,0,0,0,0,0,0,0.5167,0.509,0.5253,0.5269,0.5271,0.5346,0.5347,0.5349,0.5353,0.5351,0.535,0.5348,0.5446,0.5452,0.5457,0.5524,0,0,0.5474,0.5476,0,0,0,0,0,0,0,0,0.5162,0.5173,0.5265,0.5268,0.5271,0.5336,0.5325,0.5408,0.5354,0.5322,0.5349,0.5348,0.5413,0.5421,0.5442,0.5529,0.5533,0.5474,0.5478,0.548,0.5482,0,0,0,0,0,0,0,0.5157,0.5169,0.529,0.5267,0.527,0.5273,0.5283,0.534,0.5376,0.5325,0.5325,0.5336,0.5414,0.5437,0.5445,0.5534,0.5474,0.5479,0.5483,0.5485,0.5683,0.5685,0,0,0,0,0,0,0.5147,0.5164,0.5287,0.5293,0.5211,0.5277,0.5288,0.5317,0.5375,0.5382,0.5337,0.5336,0.5428,0.5438,0.5448,0.5532,0.548,0.5485,0.5488,0.5681,0.5683,0.5686,0,0,0,0,0,0,0.5144,0.5158,0.5284,0.5229,0.5245,0.5282,0.5314,0.532,0.5342,0.5385,0.5391,0.5354,0.5427,0.544,0.5505,0.5536,0.5488,0.5493,0.5679,0.5682,0.5685,0.57,0,0,0,0,0,0,0.5139,0.5157,0.5181,0.5229,0.5248,0.5338,0.5316,0.5323,0.5351,0.535,0.5402,0.5409,0.5427,0.5497,0.5511,0.5542,0.5497,0.5676,0.568,0.5684,0.5697,0.5703,0.5708,0,0,0,0,0,0.5133,0.5182,0.5183,0.5197,0.5279,0.5339,0.535,0.5369,0.5353,0.538,0.5407,0.5407,0.553,0.5504,0.5519,0.5553,0.5675,0.5679,0.5683,0.5694,0.5702,0.5708,0,0,0,0,0,0,0.5138,0.5189,0.519,0.5256,0.5293,0.534,0.5373,0.5376,0.5419,0.5417,0.544,0.5451,0.5516,0.5541,0.5511,0.5622,0.5601,0.5608,0.5604,0.5611,0.5617,0.561,0.5502,0,0,0,0,0,0.5147,0.519,0.5233,0.5287,0.5306,0.5336,0.5363,0.5374,0.5414,0.5431,0.5463,0.5503,0.5551,0.5582,0.5628,0.57,0.5713,0.5731,0.5736,0.5741,0.5748,0.579,0.5799,0.57,0.57,0.57,0,0,0.5166,0.5199,0.5225,0.5289,0.5319,0.5365,0.5349,0.5398,0.5434,0.5439,0.5502,0.5527,0.5574,0.5643,0.5675,0.5665,0.5778,0.5746,0.575,0.5755,0.5795,0.5805,0.5813,0.5703,0.5703,0.5702,0,0,0.5224,0.5252,0.5302,0.5332,0.5378,0.5398,0.541,0.5456,0.5473,0.5537,0.5542,0.5585,0.5666,0.57,0.5727,0.58,0.5803,0.5814,0.5844,0.5885,0.5893,0.59,0.5928,0.5937,0.5821,0.5821,0.5821,0,0.5242,0.531,0.5327,0.5376,0.5406,0.5411,0.5463,0.5492,0.5551,0.5572,0.556,0.5663,0.5695,0.5773,0.579,0.5812,0.5828,0.5809,0.589,0.5897,0.5904,0.5931,0.5941,0.5822,0.5822,0.5822,0.5821,0,0.5331,0.5379,0.5413,0.5469,0.5502,0.5552,0.5579,0.561,0.5619,0.5641,0.5707,0.5745,0.58,0.5819,0.5828,0.5899,0.5892,0.5885,0.5864,0.5915,0.5941,0.5951,0.5824,0.5823,0.5823,0.5823,0,0,0.5396,0.546,0.5473,0.5499,0.5551,0.5589,0.564,0.5692,0.572,0.5761,0.5806,0.5875,0.5869,0.5901,0.5914,0.5949,0.6007,0.5938,0.5939,0.5951,0.609,0.6097,0.6108,0.6008,0.601,0.6012,0.6087,0,0.5461,0.5551,0.5568,0.5647,0.5693,0.5699,0.5744,0.5782,0.5804,0.5847,0.5872,0.5922,0.5909,0.5928,0.5963,0.5992,0.6035,0.5987,0.6053,0.6055,0.6043,0.6121,0.6128,0.6197,0.6097,0.6098,0.61,0,0.5549,0.5591,0.5675,0.5721,0.5741,0.5781,0.5832,0.5872,0.5915,0.5929,0.5965,0.5974,0.603,0.6006,0.6085,0.6051,0.6079,0.6098,0.6101,0.611,0.6082,0.6134,0.6219,0.623,0.6115,0.6114,0.6113,0,0.559,0.5668,0.5728,0.575,0.5806,0.5834,0.5859,0.59,0.5932,0.5976,0.5997,0.6048,0.6076,0.6117,0.614,0.612,0.6218,0.6195,0.6234,0.6233,0.6255,0.6254,0.6349,0.627,0.627,0.627,0.627,0,0.5662,0.5713,0.5748,0.5785,0.5844,0.5864,0.5922,0.5947,0.5984,0.6028,0.6036,0.6078,0.6105,0.6152,0.6171,0.6234,0.6247,0.6261,0.6266,0.6262,0.626,0.6282,0.6278,0.6273,0.6272,0.6271,0.6271,0,0.5718,0.5743,0.5809,0.5857,0.587,0.5911,0.5952,0.599,0.6012,0.6068,0.6082,0.6118,0.6173,0.62,0.6268,0.6281,0.6354,0.6355,0.6339,0.6341,0.6379,0.6376,0.6492,0.651,0.6418,0.6419,0.6419,0,0.5763,0.5803,0.5854,0.5884,0.5909,0.5956,0.5988,0.601,0.6043,0.6096,0.6128,0.6183,0.6228,0.6316,0.6349,0.6402,0.6405,0.6443,0.6414,0.6408,0.6409,0.6407,0.6412,0.6448,0.6449,0.645,0.6451,0,0.5841,0.5852,0.5896,0.5946,0.5983,0.6024,0.6064,0.6088,0.6117,0.6154,0.6209,0.6244,0.6314,0.6369,0.6425,0.6452,0.6458,0.6459,0.6471,0.6468,0.6458,0.6466,0.6355,0.6457,0.6456,0.6456,0.6455,0.6455,0.5894,0.5931,0.5973,0.6023,0.6055,0.6093,0.6131,0.6158,0.6204,0.6262,0.6273,0.6332,0.6377,0.6452,0.6481,0.653,0.6522,0.6539,0.6543,0.6548,0.6551,0.6449,0.654,0.6539,0.6539,0.6539,0.6539,0,0.5975,0.6002,0.6048,0.6104,0.6144,0.6143,0.6188,0.6222,0.6274,0.6314,0.6358,0.6424,0.6478,0.6515,0.657,0.6602,0.6606,0.6616,0.6615,0.6622,0.6553,0.6538,0.6612,0.6612,0.6612,0.6612,0.6612,0.6612,0.6021,0.6083,0.6099,0.6178,0.6206,0.6264,0.629,0.6325,0.6358,0.6429,0.6474,0.6498,0.6538,0.6596,0.6647,0.6657,0.6678,0.6688,0.6698,0.6634,0.6626,0.6619,0.6605,0.6692,0.6692,0.6763,0.6764,0.6764]},{"header":{"parameterUnit":"m.s-1","parameterCategory":1,"la1":30.2991,"la2":30.254,"lo1":-89.0895,"lo2":-89.0444,"dx":0.0017,"dy":0.0017,"nx":28,"ny":28,"refTime":"2023-01-10T15:00:00:Z","depth":0,"parameterNumber":3,"parameterNumberName":"V-component_of_WINDS"},"data":[0,0,0,0,0,0,0,0,0,0,0,0,0,0,0,0,0,0,0,0,0,0,0,0,0,0,0,0,0,0,0,0,0,0,0,0,0,0,0,0,0,0,0,0,0,0,0,0,0,0,0,0,0,0,0,0,0,0,3.746,3.7461,0,3.7552,3.7553,3.7554,3.7547,3.7546,3.7545,3.7543,3.7635,3.7639,3.7643,0,0,0,0,0,0,0,0,0,0,0,0,0,3.7276,3.728,3.746,3.7461,3.7462,3.7552,3.7553,3.7554,3.7548,3.7546,3.7544,3.7543,3.7634,3.7638,3.7643,0,0,0,0,0,0,0,0,0,0,0,0,0,3.7361,3.7281,3.746,3.747,3.7471,3.7552,3.7553,3.7555,3.7548,3.7546,3.7544,3.7542,3.7633,3.7638,3.7644,3.7719,0,0,3.7661,3.7663,0,0,0,0,0,0,0,0,3.7356,3.7368,3.7467,3.7469,3.7471,3.7536,3.7522,3.761,3.7549,3.7519,3.7543,3.7541,3.7604,3.7612,3.7633,3.7723,3.7727,3.7661,3.7664,3.7667,3.7668,0,0,0,0,0,0,0,3.735,3.7364,3.7496,3.7468,3.7471,3.7469,3.7479,3.7539,3.7572,3.7521,3.7521,3.7532,3.7605,3.7628,3.7635,3.7728,3.7661,3.7666,3.7669,3.7671,3.7886,3.7888,0,0,0,0,0,0,3.7342,3.7359,3.7493,3.7499,3.7408,3.7474,3.7485,3.7517,3.7571,3.7577,3.7534,3.7532,3.7619,3.7629,3.7639,3.7732,3.7667,3.7672,3.7675,3.7883,3.7886,3.7889,0,0,0,0,0,0,3.7338,3.7354,3.7489,3.7429,3.7446,3.7479,3.7516,3.752,3.7544,3.758,3.7586,3.7552,3.7618,3.7631,3.7699,3.7735,3.7674,3.768,3.7881,3.7884,3.7888,3.7918,0,0,0,0,0,0,3.7333,3.7353,3.7382,3.743,3.7449,3.755,3.7518,3.7524,3.7554,3.7552,3.7599,3.7605,3.7618,3.7691,3.7705,3.7741,3.7684,3.7878,3.7882,3.7886,3.7914,3.7922,3.7929,0,0,0,0,0,3.7327,3.7386,3.7384,3.74,3.7487,3.7552,3.7563,3.7577,3.7556,3.7586,3.761,3.7603,3.7728,3.7698,3.7714,3.7752,3.7876,3.7881,3.7886,3.791,3.792,3.7929,0,0,0,0,0,0,3.7341,3.7393,3.7391,3.7467,3.7505,3.755,3.7588,3.7587,3.7631,3.7627,3.7642,3.7652,3.7722,3.7743,3.7709,3.7829,3.7799,3.7808,3.7812,3.7822,3.7829,3.7823,3.7689,0,0,0,0,0,3.7354,3.7403,3.7445,3.7508,3.7528,3.7555,3.7583,3.7591,3.7631,3.7647,3.7675,3.7713,3.7761,3.7792,3.7838,3.7916,3.7927,3.795,3.7958,3.7964,3.7972,3.8016,3.8027,3.7906,3.7906,3.7906,0,0,3.738,3.7414,3.7443,3.7512,3.7543,3.7593,3.7568,3.7622,3.766,3.7654,3.7722,3.7744,3.7787,3.7861,3.7895,3.7882,3.8007,3.7971,3.7975,3.798,3.8022,3.8034,3.8044,3.791,3.7909,3.7909,0,0,3.7453,3.7483,3.754,3.7572,3.7618,3.7636,3.765,3.7695,3.771,3.7778,3.7776,3.782,3.7902,3.7933,3.796,3.8046,3.8042,3.806,3.81,3.8143,3.8152,3.8161,3.8193,3.8204,3.8067,3.8067,3.8067,0,3.7479,3.7556,3.757,3.7625,3.7656,3.7654,3.7712,3.7741,3.78,3.7821,3.7805,3.7909,3.7938,3.802,3.8041,3.8062,3.8078,3.8056,3.815,3.8159,3.8167,3.8198,3.8209,3.8069,3.8069,3.8069,3.8069,0,3.7586,3.7639,3.768,3.7738,3.7773,3.7829,3.7852,3.7885,3.789,3.7909,3.7979,3.8013,3.8067,3.8087,3.8091,3.817,3.816,3.8147,3.8118,3.818,3.821,3.8221,3.8072,3.8072,3.8071,3.807,0,0,3.7672,3.7738,3.7753,3.7781,3.7832,3.7873,3.7929,3.7983,3.8012,3.8052,3.81,3.8169,3.8158,3.8188,3.8196,3.8233,3.8301,3.8215,3.8217,3.8232,3.8391,3.8403,3.8416,3.8298,3.83,3.8302,3.8388,0,3.7752,3.7853,3.7868,3.7957,3.8007,3.8006,3.8055,3.8091,3.8111,3.8155,3.8176,3.8226,3.8206,3.8224,3.8261,3.8285,3.8333,3.8278,3.8343,3.8345,3.8334,3.8431,3.8443,3.8523,3.84,3.8402,3.8403,0,3.7859,3.7905,3.7999,3.8045,3.8066,3.811,3.8161,3.8204,3.8245,3.8256,3.8291,3.8294,3.8352,3.8319,3.84,3.8362,3.8389,3.8404,3.8408,3.8416,3.8379,3.8443,3.8549,3.8562,3.8421,3.8419,3.8418,0,3.7915,3.7999,3.8067,3.809,3.8144,3.8176,3.82,3.8239,3.8271,3.8315,3.8335,3.8385,3.8412,3.845,3.8467,3.8441,3.8547,3.8515,3.8558,3.8558,3.8582,3.8581,3.8695,3.8596,3.8596,3.8596,3.8595,0,3.8004,3.8063,3.8093,3.8135,3.82,3.8216,3.828,3.8303,3.8338,3.8384,3.8385,3.8428,3.8446,3.8492,3.8505,3.857,3.8582,3.8593,3.8596,3.8594,3.8593,3.8613,3.8609,3.8599,3.8598,3.8597,3.8597,0,3.8079,3.8101,3.8176,3.8221,3.8234,3.8281,3.832,3.836,3.8379,3.8437,3.8452,3.8481,3.8535,3.8555,3.862,3.8629,3.8705,3.8702,3.8692,3.8693,3.8736,3.8732,3.8869,3.8889,3.8775,3.8776,3.8777,0,3.8135,3.818,3.8231,3.8263,3.8289,3.8339,3.8372,3.8388,3.8422,3.8473,3.8508,3.8562,3.8606,3.8692,3.8719,3.8769,3.8769,3.8813,3.8776,3.8773,3.8772,3.877,3.8775,3.8821,3.8822,3.8823,3.8823,0,3.8233,3.8243,3.829,3.8343,3.8382,3.8423,3.8463,3.8489,3.8511,3.8549,3.8606,3.864,3.8707,3.8761,3.8813,3.8836,3.8834,3.8835,3.8848,3.8847,3.884,3.8847,3.8713,3.8832,3.8831,3.883,3.883,3.883,3.8302,3.8343,3.8386,3.8439,3.8471,3.8509,3.855,3.8574,3.8622,3.8679,3.8685,3.8746,3.8786,3.8855,3.8881,3.8928,3.8916,3.8934,3.8939,3.8944,3.8948,3.8831,3.8937,3.8937,3.8937,3.8936,3.8936,0,3.8402,3.843,3.8479,3.8536,3.8578,3.8572,3.8617,3.8652,3.8706,3.8744,3.8788,3.8853,3.8905,3.8936,3.8988,3.902,3.902,3.9033,3.9032,3.9038,3.8955,3.894,3.9032,3.9032,3.9032,3.9032,3.9032,3.9032,3.846,3.8529,3.8543,3.8628,3.8655,3.8716,3.8741,3.8776,3.8807,3.888,3.8924,3.8944,3.8979,3.9034,3.9082,3.909,3.911,3.9124,3.9131,3.9053,3.9044,3.9034,3.902,3.9128,3.9128,3.921,3.9211,3.9211]}]]